This is the latest recevied weather packets stored in our database for station/object KB1RMA-4. If no packets are shown the sender has not sent any weather packets the latest 10 day(s).
| Time | Temp. | Humidity | Pressure | Rain* | Wind** | Luminosity | Snow |
|---|---|---|---|---|---|---|---|
| 1787417350 | 19.44° C | 76% | 1018.8 hPa | 0 mm | - | 65 W/m² | - |
| 1787417046 | 19.44° C | 75% | 1018.6 hPa | 0 mm | - | 71 W/m² | - |
| 1787416742 | 20° C | 75% | 1018.8 hPa | 0 mm | - | 78 W/m² | - |
| 1787416437 | 20° C | 75% | 1018.6 hPa | 0 mm | - | 81 W/m² | - |
| 1787416133 | 20° C | 74% | 1018.7 hPa | 0 mm | - | 85 W/m² | - |
| 1787415829 | 20° C | 74% | 1018.6 hPa | 0 mm | - | 87 W/m² | - |
| 1787415527 | 20° C | 74% | 1018.6 hPa | 0 mm | - | 114 W/m² | - |
| 1787415222 | 20° C | 74% | 1018.6 hPa | 0 mm | - | 200 W/m² | - |
| 1787414917 | 20° C | 74% | 1018.5 hPa | 0 mm | - | 199 W/m² | - |
| 1787414613 | 20° C | 75% | 1018.7 hPa | 0 mm | - | 155 W/m² | - |
| 1787414311 | 20° C | 75% | 1018.6 hPa | 0 mm | - | 140 W/m² | - |
| 1787414007 | 20° C | 75% | 1018.5 hPa | 0 mm | - | 136 W/m² | - |
| 1787413707 | 20° C | 75% | 1018.7 hPa | 0 mm | - | 120 W/m² | - |
| 1787413407 | 20° C | 75% | 1018.8 hPa | 0 mm | - | 121 W/m² | - |
| 1787413103 | 20° C | 75% | 1019 hPa | 0 mm | - | 112 W/m² | - |
| 1787412800 | 20° C | 75% | 1018.8 hPa | 0 mm | - | 109 W/m² | - |
| 1787412498 | 20° C | 75% | 1018.8 hPa | 0 mm | - | 113 W/m² | - |
| 1787412194 | 20.56° C | 75% | 1018.8 hPa | 0 mm | - | 150 W/m² | - |
| 1787411891 | 20° C | 75% | 1018.6 hPa | 0 mm | - | 199 W/m² | - |
| 1787411587 | 20° C | 75% | 1018.7 hPa | 0 mm | - | 184 W/m² | - |
| 1787411282 | 20° C | 75% | 1018.9 hPa | 0 mm | - | 140 W/m² | - |
| 1787410978 | 20° C | 75% | 1019 hPa | 0 mm | - | 159 W/m² | - |
| 1787410673 | 20° C | 75% | 1019.4 hPa | 0 mm | - | 99 W/m² | - |
| 1787410369 | 20° C | 75% | 1019.3 hPa | 0 mm | - | 101 W/m² | - |
| 1787410064 | 20° C | 75% | 1019.1 hPa | 0 mm | - | 94 W/m² | - |
* Rain latest hour (hover to see other rain measurements)
** Current wind speed in m/s (hover to see current wind gust speed)